[{"OBJECT_NAME":"IRIDIUM 169","OBJECT_ID":"2019-002E","EPOCH":"2026-09-12T06:23:46.822560","MEAN_MOTION":14.3860994,"ECCENTRICITY":0.00024497,"INCLINATION":86.4283,"RA_OF_ASC_NODE":348.8044,"ARG_OF_PERICENTER":85.6417,"MEAN_ANOMALY":274.5062,"EPHEMERIS_TYPE":0,"CLASSIFICATION_TYPE":"U","NORAD_CAT_ID":43926,"ELEMENT_SET_NO":999,"REV_AT_EPOCH":40274,"BSTAR":0.000062965932,"MEAN_MOTION_DOT":0.00000213,"MEAN_MOTION_DDOT":0},{"OBJECT_NAME":"IRIDIUM 172","OBJECT_ID":"2019-002F","EPOCH":"2026-09-12T04:21:38.989728","MEAN_MOTION":14.34217151,"ECCENTRICITY":0.0002223,"INCLINATION":86.3985,"RA_OF_ASC_NODE":317.2265,"ARG_OF_PERICENTER":96.0047,"MEAN_ANOMALY":264.1402,"EPHEMERIS_TYPE":0,"CLASSIFICATION_TYPE":"U","NORAD_CAT_ID":43927,"ELEMENT_SET_NO":999,"REV_AT_EPOCH":40143,"BSTAR":0.00010360359,"MEAN_MOTION_DOT":0.0000031,"MEAN_MOTION_DDOT":0},{"OBJECT_NAME":"IRIDIUM 175","OBJECT_ID":"2019-002G","EPOCH":"2026-09-12T01:21:55.643328","MEAN_MOTION":14.43645102,"ECCENTRICITY":0.00015366,"INCLINATION":86.4462,"RA_OF_ASC_NODE":254.1914,"ARG_OF_PERICENTER":337.703,"MEAN_ANOMALY":22.4104,"EPHEMERIS_TYPE":0,"CLASSIFICATION_TYPE":"U","NORAD_CAT_ID":43928,"ELEMENT_SET_NO":999,"REV_AT_EPOCH":41151,"BSTAR":0.000025072377,"MEAN_MOTION_DOT":0.00000105,"MEAN_MOTION_DDOT":0},{"OBJECT_NAME":"IRIDIUM 171","OBJECT_ID":"2019-002H","EPOCH":"2026-09-12T03:54:14.805504","MEAN_MOTION":14.34218567,"ECCENTRICITY":0.00021893,"INCLINATION":86.3996,"RA_OF_ASC_NODE":317.5504,"ARG_OF_PERICENTER":92.7461,"MEAN_ANOMALY":267.3985,"EPHEMERIS_TYPE":0,"CLASSIFICATION_TYPE":"U","NORAD_CAT_ID":43929,"ELEMENT_SET_NO":999,"REV_AT_EPOCH":40142,"BSTAR":0.000051063191,"MEAN_MOTION_DOT":0.00000163,"MEAN_MOTION_DDOT":0},{"OBJECT_NAME":"IRIDIUM 170","OBJECT_ID":"2019-002J","EPOCH":"2026-09-12T03:55:55.732800","MEAN_MOTION":14.72255529,"ECCENTRICITY":0.00024799,"INCLINATION":86.6106,"RA_OF_ASC_NODE":317.194,"ARG_OF_PERICENTER":94.8814,"MEAN_ANOMALY":265.2686,"EPHEMERIS_TYPE":0,"CLASSIFICATION_TYPE":"U","NORAD_CAT_ID":43930,"ELEMENT_SET_NO":999,"REV_AT_EPOCH":41205,"BSTAR":0.000071040938,"MEAN_MOTION_DOT":0.00000473,"MEAN_MOTION_DDOT":0},{"OBJECT_NAME":"IRIDIUM 167","OBJECT_ID":"2019-002K","EPOCH":"2026-09-12T03:45:06.727104","MEAN_MOTION":14.34216516,"ECCENTRICITY":0.00021167,"INCLINATION":86.3987,"RA_OF_ASC_NODE":317.2604,"ARG_OF_PERICENTER":89.2058,"MEAN_ANOMALY":270.938,"EPHEMERIS_TYPE":0,"CLASSIFICATION_TYPE":"U","NORAD_CAT_ID":43931,"ELEMENT_SET_NO":999,"REV_AT_EPOCH":40142,"BSTAR":0.000027097652,"MEAN_MOTION_DOT":9.6e-7,"MEAN_MOTION_DDOT":0},{"OBJECT_NAME":"IRIDIUM 181","OBJECT_ID":"2023-068S","EPOCH":"2026-09-12T07:44:52.474848","MEAN_MOTION":14.43311125,"ECCENTRICITY":0.00021072,"INCLINATION":86.4538,"RA_OF_ASC_NODE":20.3553,"ARG_OF_PERICENTER":97.5531,"MEAN_ANOMALY":262.591,"EPHEMERIS_TYPE":0,"CLASSIFICATION_TYPE":"U","NORAD_CAT_ID":56726,"ELEMENT_SET_NO":999,"REV_AT_EPOCH":17500,"BSTAR":0.000054415638,"MEAN_MOTION_DOT":0.00000203,"MEAN_MOTION_DDOT":0},{"OBJECT_NAME":"IRIDIUM 177","OBJECT_ID":"2023-068T","EPOCH":"2026-09-12T06:52:50.937024","MEAN_MOTION":14.77161956,"ECCENTRICITY":0.00025826,"INCLINATION":86.1927,"RA_OF_ASC_NODE":287.4625,"ARG_OF_PERICENTER":92.4692,"MEAN_ANOMALY":267.6823,"EPHEMERIS_TYPE":0,"CLASSIFICATION_TYPE":"U","NORAD_CAT_ID":56727,"ELEMENT_SET_NO":999,"REV_AT_EPOCH":17924,"BSTAR":0.000077492972,"MEAN_MOTION_DOT":0.00000574,"MEAN_MOTION_DDOT":0},{"OBJECT_NAME":"IRIDIUM 174","OBJECT_ID":"2023-068U","EPOCH":"2026-09-12T03:38:07.875456","MEAN_MOTION":14.72256014,"ECCENTRICITY":0.00027057,"INCLINATION":86.6115,"RA_OF_ASC_NODE":317.3553,"ARG_OF_PERICENTER":93.4862,"MEAN_ANOMALY":266.6665,"EPHEMERIS_TYPE":0,"CLASSIFICATION_TYPE":"U","NORAD_CAT_ID":56728,"ELEMENT_SET_NO":999,"REV_AT_EPOCH":17881,"BSTAR":0.000072459924,"MEAN_MOTION_DOT":0.00000482,"MEAN_MOTION_DDOT":0},{"OBJECT_NAME":"IRIDIUM 178","OBJECT_ID":"2023-068V","EPOCH":"2026-09-12T06:10:54.861888","MEAN_MOTION":14.80036436,"ECCENTRICITY":0.00027031,"INCLINATION":86.6597,"RA_OF_ASC_NODE":348.999,"ARG_OF_PERICENTER":98.3821,"MEAN_ANOMALY":261.7707,"EPHEMERIS_TYPE":0,"CLASSIFICATION_TYPE":"U","NORAD_CAT_ID":56729,"ELEMENT_SET_NO":999,"REV_AT_EPOCH":17924,"BSTAR":0.000061727175,"MEAN_MOTION_DOT":0.00000493,"MEAN_MOTION_DDOT":0},{"OBJECT_NAME":"IRIDIUM 179","OBJECT_ID":"2023-068W","EPOCH":"2026-09-12T06:03:11.783808","MEAN_MOTION":14.80046788,"ECCENTRICITY":0.00023683,"INCLINATION":86.6837,"RA_OF_ASC_NODE":358.2331,"ARG_OF_PERICENTER":90.8935,"MEAN_ANOMALY":269.2558,"EPHEMERIS_TYPE":0,"CLASSIFICATION_TYPE":"U","NORAD_CAT_ID":56730,"ELEMENT_SET_NO":999,"REV_AT_EPOCH":17924,"BSTAR":0.000094925649,"MEAN_MOTION_DOT":0.00000744,"MEAN_MOTION_DDOT":0}]